Change the Weather History Date:

Wednesday, April 16, 2014

  Actual Average (KOTG) Record (KOTG)
Temperature  
Mean Temperature 33 °F -  
Max Temperature 39 °F 53 °F 84 °F (2002)
Min Temperature 27 °F 34 °F 23 °F (1983)
Degree Days  
Heating Degree Days 32    
Moisture  
Dew Point 29 °F    
Average Humidity 86    
Maximum Humidity 100    
Minimum Humidity 67    
Precipitation  
Precipitation 0.17 in - - ()
Sea Level Pressure  
Sea Level Pressure 29.81 in    
Wind  
Wind Speed 19 mph (NE)    
Max Wind Speed 29 mph    
Max Gust Speed 38 mph    
Visibility 7 miles    
Events Rain , Snow    
Averages and records for this station are not official NWS values.
T = Trace of Precipitation, MM = Missing Value Source: NWS Daily Summary

Daily Weather History Graph

Daily Weather History Graph

Search for Another Location

Airport or City:

Trip Planner

Search our weather history database for the weather conditions in past years. The results will help you decide how hot, cold, wet, or windy it might be!

Date:

Astronomy

Apr. 16, 2014 Rise Set
Actual Time 6:38 AM CDT 8:08 PM CDT
Civil Twilight 6:08 AM CDT 8:38 PM CDT
Nautical Twilight 5:31 AM CDT 9:15 PM CDT
Astronomical Twilight 4:52 AM CDT 9:54 PM CDT
Moon 9:56 PM CDT (4/16) 7:24 AM CDT (4/16)
Length of Visible Light 14h 30m
Length of Day
13h 30m
Full, 98% of the Moon is Illuminated
Apr 16
Full
Apr 22
Last Quarter
Apr 29
New
May 6
First Quarter
May 14
Full

Hourly Weather History & Observations

Time (CDT) Temp. Windchill Dew Point Humidity Pressure Visibility Wind Dir Wind Speed Gust Speed Precip Events Conditions
12:13 AM 33.1 °F 20.1 °F 23.2 °F 67% 29.82 in 10.0 mi ESE 25.3 mph 34.5 mph N/A   Overcast
12:32 AM 32.5 °F 19.4 °F 23.0 °F 68% 29.82 in 10.0 mi ESE 25.3 mph 31.1 mph N/A   Scattered Clouds
12:53 AM 32.2 °F 20.7 °F 23.0 °F 69% 29.81 in 10.0 mi ESE 18.4 mph 32.2 mph N/A   Scattered Clouds
1:12 AM 32.2 °F 19.4 °F 22.8 °F 68% 29.81 in 10.0 mi ESE 23.0 mph 29.9 mph N/A   Overcast
1:33 AM 32.4 °F 19.7 °F 22.8 °F 68% 29.80 in 10.0 mi ESE 23.0 mph 31.1 mph N/A   Overcast
1:53 AM 32.2 °F 20.7 °F 22.6 °F 68% 29.80 in 10.0 mi ESE 18.4 mph 29.9 mph N/A   Overcast
2:13 AM 32.0 °F 19.8 °F 22.6 °F 68% 29.79 in 10.0 mi ESE 20.7 mph 26.5 mph N/A   Mostly Cloudy
2:33 AM 32.0 °F 18.9 °F 23.0 °F 69% 29.77 in 10.0 mi ESE 24.2 mph 29.9 mph N/A   Mostly Cloudy
2:52 AM 32.0 °F 19.5 °F 23.0 °F 69% 29.76 in 10.0 mi ESE 21.9 mph - N/A   Overcast
3:12 AM 32.0 °F 20.1 °F 23.4 °F 70% 29.75 in 10.0 mi ESE 19.6 mph 26.5 mph N/A   Overcast
3:33 AM 32.2 °F 20.4 °F 23.9 °F 72% 29.74 in 10.0 mi ESE 19.6 mph 27.6 mph N/A   Overcast
3:54 AM 32.4 °F 23.0 °F 24.3 °F 72% 29.75 in 10.0 mi ESE 12.7 mph - N/A   Overcast
4:13 AM 33.1 °F 21.9 °F 24.8 °F 72% 29.74 in 10.0 mi ESE 18.4 mph - N/A   Overcast
4:32 AM 33.8 °F 23.5 °F 25.3 °F 71% 29.73 in 10.0 mi ESE 16.1 mph - N/A   Overcast
4:53 AM 33.8 °F 24.3 °F 25.7 °F 72% 29.73 in 10.0 mi ESE 13.8 mph 20.7 mph N/A   Overcast
5:13 AM 34.0 °F 23.8 °F 26.2 °F 73% 29.71 in 10.0 mi ESE 16.1 mph 21.9 mph N/A   Overcast
5:33 AM 34.3 °F 24.2 °F 26.6 °F 73% 29.71 in 10.0 mi ESE 16.1 mph - N/A   Overcast
5:52 AM 34.5 °F 24.1 °F 27.1 °F 74% 29.70 in 10.0 mi ESE 17.3 mph - N/A   Overcast
6:13 AM 34.7 °F 25.1 °F 27.5 °F 75% 29.70 in 10.0 mi ESE 15.0 mph - N/A   Overcast
6:33 AM 35.2 °F 25.8 °F 28.4 °F 76% 29.70 in 10.0 mi ESE 15.0 mph - N/A   Overcast
6:53 AM 35.8 °F 26.5 °F 28.8 °F 76% 29.70 in 10.0 mi ESE 15.0 mph - N/A   Overcast
7:13 AM 36.0 °F 28.0 °F 28.9 °F 76% 29.70 in 10.0 mi ESE 11.5 mph - N/A   Overcast
7:33 AM 36.5 °F 28.2 °F 29.3 °F 75% 29.71 in 10.0 mi ESE 12.7 mph - N/A   Overcast
7:52 AM 36.5 °F 29.2 °F 29.3 °F 75% 29.72 in 10.0 mi ESE 10.4 mph - N/A   Overcast
8:13 AM 36.5 °F 29.7 °F 29.5 °F 76% 29.72 in 10.0 mi East 9.2 mph - N/A   Overcast
8:32 AM 36.9 °F 28.2 °F 29.8 °F 76% 29.70 in 10.0 mi East 13.8 mph - N/A   Light Drizzle
8:53 AM 37.0 °F 29.3 °F 31.1 °F 79% 29.70 in 7.0 mi East 11.5 mph - N/A   Overcast
9:13 AM 37.4 °F 29.3 °F 31.3 °F 79% 29.71 in 10.0 mi East 12.7 mph - N/A   Overcast
9:32 AM 38.3 °F 30.5 °F 31.8 °F 77% 29.71 in 10.0 mi ESE 12.7 mph - N/A   Overcast
9:53 AM 37.6 °F 30.0 °F 32.4 °F 81% 29.70 in 7.0 mi East 11.5 mph - N/A Rain Light Rain
10:13 AM 37.6 °F 29.1 °F 33.1 °F 84% 29.70 in 7.0 mi East 13.8 mph - N/A Rain Light Rain
10:33 AM 38.3 °F 30.5 °F 33.8 °F 84% 29.70 in 7.0 mi East 12.7 mph - N/A Rain Rain
10:53 AM 38.5 °F 33.4 °F 34.7 °F 86% 29.70 in 7.0 mi East 6.9 mph - 0.01 in Rain Light Rain
11:13 AM 39.2 °F 35.9 °F 36.0 °F 88% 29.71 in 7.0 mi ENE 4.6 mph - 0.01 in Rain Light Rain
11:31 AM 39.2 °F 35.0 °F 36.3 °F 89% 29.70 in 10.0 mi ENE 5.8 mph - 0.01 in Rain Light Rain
12:49 PM 36.1 °F 26.2 °F 35.1 °F 96% 29.73 in 4.0 mi North 17.3 mph 21.9 mph 0.07 in Rain Rain
12:56 PM 34.9 °F 24.2 °F 33.6 °F 95% 29.73 in 3.0 mi North 18.4 mph 24.2 mph 0.07 in Rain Rain
1:21 PM 33.8 °F 24.8 °F 33.3 °F 98% 29.74 in 3.0 mi North 12.7 mph - 0.02 in Rain Light Rain
1:37 PM 33.8 °F 25.3 °F 33.8 °F 100% 29.75 in 2.5 mi NNE 11.5 mph 17.3 mph 0.02 in Rain Light Rain
1:51 PM 33.8 °F 24.3 °F 33.8 °F 100% 29.75 in 3.0 mi NE 13.8 mph 17.3 mph 0.02 in Rain Light Rain
2:13 PM 34.0 °F 24.6 °F 34.0 °F 100% 29.76 in 3.0 mi NE 13.8 mph - N/A   Light Drizzle
2:33 PM 33.8 °F 24.8 °F 33.8 °F 100% 29.77 in 2.5 mi NE 12.7 mph 17.3 mph 0.01 in Rain Light Rain
2:53 PM 33.8 °F 25.3 °F 33.8 °F 100% 29.77 in 2.5 mi NE 11.5 mph - 0.02 in Rain Light Rain
3:14 PM 33.8 °F 25.3 °F 33.8 °F 100% 29.78 in 2.0 mi NNE 11.5 mph - 0.01 in Rain Light Rain
3:33 PM 33.8 °F 24.8 °F 33.8 °F 100% 29.78 in 2.0 mi NNE 12.7 mph - 0.03 in Rain Light Rain
3:52 PM 34.0 °F 23.8 °F 34.0 °F 100% 29.79 in 2.5 mi North 16.1 mph - 0.03 in Rain Rain
4:14 PM 32.4 °F 20.9 °F 32.4 °F 100% 29.79 in 2.0 mi North 18.4 mph 21.9 mph N/A Snow Light Snow
4:53 PM 32.0 °F 19.8 °F 32.0 °F 100% 29.80 in 3.0 mi North 20.7 mph 24.2 mph 0.01 in Snow Light Snow
5:12 PM 30.9 °F 17.5 °F 30.9 °F 100% 29.81 in 0.8 mi North 24.2 mph 28.8 mph N/A Snow Light Snow
5:33 PM 29.8 °F 15.7 °F 29.8 °F 100% 29.82 in 0.2 mi North 25.3 mph - N/A Snow Heavy Snow
5:52 PM 29.3 °F 15.9 °F 29.3 °F 100% 29.84 in - North 21.9 mph - N/A   Overcast
6:12 PM 28.9 °F 15.8 °F 28.9 °F 100% 29.85 in - North 20.7 mph 28.8 mph N/A   Overcast
6:33 PM 28.8 °F 14.0 °F 28.6 °F 99% 29.87 in - North 26.5 mph 31.1 mph N/A   Overcast
6:53 PM 28.4 °F 13.5 °F 28.4 °F 100% 29.89 in - North 26.5 mph 31.1 mph N/A   Overcast
7:13 PM 28.4 °F 14.1 °F 28.2 °F 99% 29.90 in - North 24.2 mph 31.1 mph N/A   Overcast
7:33 PM 28.2 °F 13.0 °F 27.9 °F 99% 29.91 in - North 27.6 mph 34.5 mph N/A   Overcast
7:52 PM 28.2 °F 12.8 °F 28.0 °F 99% 29.92 in - North 28.8 mph 34.5 mph N/A   Overcast
8:12 PM 28.0 °F 13.0 °F 28.0 °F 100% 29.93 in - North 26.5 mph 32.2 mph N/A   Overcast
8:33 PM 28.2 °F 12.8 °F 28.2 °F 100% 29.95 in - North 28.8 mph 34.5 mph N/A   Overcast
8:53 PM 27.9 °F 12.8 °F 27.7 °F 99% 29.97 in - North 26.5 mph 33.4 mph N/A   Overcast
9:12 PM 27.5 °F 11.8 °F 27.3 °F 99% 29.99 in - North 28.8 mph 38.0 mph N/A   Overcast
9:33 PM 27.5 °F 12.6 °F 27.1 °F 99% 30.00 in - North 25.3 mph 38.0 mph N/A   Overcast
9:52 PM 27.5 °F 12.9 °F 27.0 °F 98% 30.02 in - North 24.2 mph 32.2 mph N/A   Overcast
10:13 PM 27.5 °F 12.3 °F 26.6 °F 96% 30.03 in - North 26.5 mph 33.4 mph N/A   Overcast
10:33 PM 27.5 °F 12.6 °F 26.4 °F 96% 30.04 in - North 25.3 mph 29.9 mph N/A   Overcast
10:53 PM 27.5 °F 12.9 °F 26.1 °F 94% 30.04 in - North 24.2 mph 32.2 mph N/A   Overcast
11:13 PM 27.5 °F 13.2 °F 26.1 °F 94% 30.05 in - North 23.0 mph 31.1 mph N/A   Overcast
11:33 PM 27.3 °F 13.3 °F 25.7 °F 94% 30.06 in - North 21.9 mph 29.9 mph N/A   Overcast
11:53 PM 27.1 °F 14.1 °F 25.5 °F 94% 30.07 in - NNW 18.4 mph 25.3 mph N/A   Overcast